Location: Bailleul
(50.3375°N, 2.8513°E)
Time: 12:54:00
(UTC+00:00)

Terra - Pass Details

Date: 29 July 2021
Orbit: 701 x 703 km, 98.2° (Epoch: 28 September)

Event Time Altitude Azimuth Distance (km) Brightness Sun altitude
Exits shadow 22:26:24 18° 213° (SSW) 1,702 3.5 -18.4°
Maximum altitude 22:29:13 32° 265° (W) 1,214 3.2 -18.6°
Drops below altitude 10° 22:33:29 10° 328° (NNW) 2,183 5.6 -18.8°
Sets 22:35:59 0° 339° (NNW) 3,107 6.8 -19.0°
